User: anonymous   Login
Location: *
(60.1759°S, 155.0663°W)
Time: 17:28:10
(UTC+00:00)
Language:

Cosmos 1464 Rocket - Orbit

View from above orbital plane
View from above orbital plane
View from above satellite
View from above satellite

Ground track
Ground track

The orbit data is extracted from the following two-line orbital elements,

1 14085U 83048B   19317.67987048 -.00000018  00000-0 -33951-4 0  9997
2 14085  82.9422 156.9840 0033673 163.7766 196.4477 13.76298484831639
Epoch (UTC): 13 November 2019 16:19:00
Eccentricity: 0.0033673
inclination: 82.9422°
perigee height: 952 km
apogee height: 1002 km
right ascension of ascending node: 156.9840°
argument of perigee: 163.7766°
revolutions per day: 13.76298484
mean anomaly at epoch: 196.4477°
orbit number at epoch: 83163

The dashed part of the orbit path shows where the satellite is in the earth's shadow,  

DLR